1488268800.47,5153,8.0,72144.0,3.45,-29.83,-29.23,0,*47
1488268801.72,5154,8.0,72122.0,3.43,-31.11,-30.55,0,*4D
1488268802.97,5155,8.0,72140.0,3.43,-32.85,-32.29,0,*4B
1488268804.19,5156,8.0,72164.8,3.43,-31.95,-31.29,0,*49
1488268805.44,5157,8.0,72180.3,3.39,-32.07,-31.39,0,*4C
1488268806.69,5158,8.0,72164.8,3.41,-32.23,-31.73,0,*44
1488268807.94,5159,8.06,72218.5,3.37,-33.67,-32.85,0,*4F
1488268809.22,5160,8.0,72184.3,3.37,-33.31,-32.79,0,*45
1488268810.44,5161,8.0,72186.5,3.35,-33.73,-33.03,0,*4C
1488268811.72,5162,8.0,72196.8,3.31,-33.43,-32.79,0,*44
1488268812.95,5163,8.0,72196.3,3.31,-32.97,-32.35,0,*45
1488268814.23,5164,8.0,72188.3,3.27,-32.07,-31.39,0,*43
1488268815.48,5165,8.06,72222.8,3.29,-31.85,-31.11,0,*4F
1488268816.71,5166,8.06,72250.8,3.29,-31.57,-30.83,0,*49
1488268817.93,5167,8.0,72212.8,3.27,-31.17,-30.33,0,*49
1488268819.17,5168,8.06,72240.0,3.27,-30.89,-30.11,0,*40
1488268820.42,5169,8.06,72256.8,3.29,-30.51,-29.89,0,*43
1488268821.67,5170,8.06,72246.5,3.27,-31.39,-30.67,0,*42
1488268822.87,5171,8.06,72228.5,3.31,-30.45,-29.79,0,*49
1488268824.11,5172,8.06,72238.0,3.31,-30.95,-30.27,0,*44
1488268825.34,5173,8.06,72240.8,3.29,-30.67,-29.89,0,*4D
1488268826.59,5174,8.06,72236.8,3.33,-29.89,-28.97,0,*47
1488268827.87,5175,8.06,72232.3,3.33,-30.89,-30.05,0,*4C
1488268829.12,5176,8.06,72240.8,3.33,-31.79,-30.95,0,*48
1488268830.37,5177,8.06,72228.8,3.31,-32.07,-31.17,0,*4A
1488268831.65,5178,8.06,72228.5,3.33,-32.19,-31.11,0,*4E
1488268832.89,5179,8.06,72234.5,3.31,-32.19,-31.33,0,*4D
1488268834.15,5180,8.06,72212.3,3.27,-32.29,-31.57,0,*4D
1488268835.4,5181,8.06,72218.5,3.27,-32.69,-31.95,0,*46
1488268836.6,5182,8.06,72230.8,3.29,-31.67,-30.83,0,*40
1488268837.84,5183,8.06,72254.0,3.27,-31.91,-31.05,0,*49
1488268839.06,5184,8.06,72262.3,3.29,-30.51,-29.61,0,*46
1488268840.27,5185,8.06,72262.8,3.29,-30.45,-29.29,0,*4E
1488268841.48,5186,8.06,72258.5,3.29,-30.27,-29.29,0,*49
1488268842.72,5187,8.06,72252.0,3.31,-30.11,-29.17,0,*49
1488268843.97,5188,8.06,72260.0,3.31,-31.85,-31.01,0,*44
1488268845.22,5189,8.06,72248.3,3.31,-31.73,-30.83,0,*47
1488268846.47,5190,8.06,72244.8,3.29,-31.57,-30.51,0,*4F
1488268847.72,5191,8.06,72228.8,3.29,-30.95,-30.05,0,*40
1488268848.97,5192,8.06,72242.3,3.31,-31.85,-30.83,0,*44
1488268850.19,5193,8.06,72250.0,3.31,-31.29,-30.23,0,*49
1488268851.41,5194,8.06,72244.3,3.29,-31.17,-30.39,0,*41
1488268852.64,5195,8.06,72254.5,3.27,-32.29,-31.33,0,*4B
1488268853.89,5196,8.06,72244.5,3.27,-32.07,-31.05,0,*41
1488268855.16,5197,8.06,72240.8,3.27,-32.45,-31.51,0,*47
1488268856.39,5198,8.06,72244.0,3.27,-32.57,-31.57,0,*4D
1488268857.64,5199,8.06,72246.5,3.21,-32.85,-31.95,0,*4B
1488268858.86,5200,8.06,72242.8,3.25,-32.79,-31.79,0,*4D
1488268860.08,5201,8.13,72252.5,3.21,-32.85,-32.01,0,*47
1488268861.3,5202,8.13,72256.3,3.21,-33.09,-32.13,0,*42
1488268862.53,5203,8.13,72264.0,3.21,-32.63,-31.45,0,*4E
1488268863.76,5204,8.13,72268.3,3.17,-31.79,-30.77,0,*44
1488268865.04,5205,8.06,72274.8,3.19,-31.85,-30.77,0,*48
1488268866.28,5206,8.13,72270.0,3.19,-30.89,-29.83,0,*45
1488268867.56,5207,8.13,72264.5,3.19,-31.85,-30.73,0,*4E
1488268868.8,5208,8.13,72260.0,3.19,-32.13,-30.95,0,*45
1488268870.06,5209,8.13,72294.3,3.19,-30.55,-29.35,0,*46
1488268871.3,5210,8.13,72304.8,3.17,-29.89,-28.75,0,*4C
1488268872.53,5211,8.13,72294.0,3.21,-29.83,-28.63,0,*45
1488268873.81,5212,8.13,72280.3,3.27,-29.35,-28.21,0,*4B
1488268875.07,5213,8.13,72284.3,3.27,-30.17,-29.29,0,*4B
1488268876.31,5214,8.13,72264.0,3.27,-31.51,-30.45,0,*4D
1488268877.56,5215,8.13,72264.5,3.27,-31.39,-30.33,0,*43
1488268878.81,5216,8.13,72296.5,3.27,-31.79,-30.73,0,*40
1488268880.04,5217,8.13,72262.8,3.25,-30.51,-29.13,0,*46
1488268881.25,5218,8.13,72306.5,3.27,-30.83,-29.79,0,*48
1488268882.46,5219,8.13,72286.0,3.27,-30.27,-29.07,0,*4E
1488268883.66,5220,8.13,72294.3,3.29,-30.67,-29.45,0,*48
1488268884.94,5221,8.13,72300.3,3.31,-30.95,-29.89,0,*4D
1488268886.14,5222,8.13,72282.0,3.27,-31.05,-29.79,0,*4E
1488268887.36,5223,8.13,72284.8,3.27,-30.27,-29.07,0,*47
1488268888.57,5224,8.13,72278.8,3.27,-31.01,-29.83,0,*49
1488268889.77,5225,8.13,72286.5,3.29,-30.83,-29.61,0,*41
1488268890.99,5226,8.13,72316.5,3.29,-30.23,-28.91,0,*46
1488268892.2,5227,8.13,72288.8,3.29,-30.51,-29.07,0,*4C
1488268893.41,5228,8.13,72278.5,3.31,-31.01,-29.79,0,*47
1488268894.6,5229,8.13,72246.8,3.29,-31.17,-29.95,0,*4A
1488268895.82,5230,8.13,72252.8,3.29,-30.77,-29.61,0,*4E
1488268897.03,5231,8.13,72242.3,3.29,-30.61,-29.23,0,*4E
1488268898.29,5232,8.13,72228.3,3.33,-31.23,-29.83,0,*4B
1488268899.53,5233,8.13,72200.0,3.31,-30.67,-29.29,0,*49
1488268900.74,5234,8.13,72204.0,3.31,-30.83,-29.61,0,*48
1488268901.96,5235,8.13,72218.0,3.31,-31.29,-29.95,0,*43
1488268903.21,5236,8.13,72220.5,3.31,-31.57,-30.27,0,*48
1488268904.47,5237,8.13,72238.3,3.31,-31.57,-30.39,0,*46
1488268905.69,5238,8.13,72222.5,3.31,-31.01,-29.61,0,*4F
1488268906.9,5239,8.13,72244.8,3.27,-31.17,-29.79,0,*47
1488268908.12,5240,8.13,72244.3,3.29,-30.77,-29.45,0,*4F
1488268909.34,5241,8.13,72256.3,3.29,-31.33,-30.05,0,*43
1488268910.56,5242,8.13,72254.5,3.29,-31.29,-29.89,0,*47
1488268911.81,5243,8.19,72268.5,3.29,-30.51,-28.91,0,*40
1488268913.04,5244,8.13,72268.0,3.31,-30.61,-29.07,0,*43
1488268914.26,5245,8.13,72270.5,3.31,-31.45,-29.95,0,*4E
1488268915.54,5246,8.19,72274.3,3.33,-31.39,-30.01,0,*41
1488268916.75,5247,8.19,72240.8,3.31,-31.01,-29.57,0,*42
1488268918.02,5248,8.13,72246.8,3.33,-30.95,-29.39,0,*4B
1488268919.27,5249,8.13,72276.0,3.31,-31.85,-30.27,0,*4F
1488268920.51,5250,8.13,72184.0,3.31,-32.79,-31.33,0,*43
1488268921.76,5251,8.19,72188.8,3.27,-32.39,-30.89,0,*41
1488268922.97,5252,8.13,72172.3,3.29,-32.51,-30.83,0,*48
1488268924.21,5253,8.19,72172.5,3.27,-31.95,-30.27,0,*42
1488268925.46,5254,8.13,72178.8,3.27,-31.95,-30.27,0,*45
1488268926.73,5255,8.19,72188.0,3.27,-31.61,-30.01,0,*4B
1488268927.94,5256,8.19,72218.5,3.25,-32.23,-30.55,0,*4E
1488268929.16,5257,8.19,72174.8,3.25,-32.29,-30.67,0,*44
1488268930.36,5258,8.19,72224.8,3.25,-32.23,-30.67,0,*41
1488268931.55,5259,8.19,72232.0,3.25,-31.33,-29.83,0,*40
1488268932.77,5260,8.19,72206.5,3.25,-32.29,-30.67,0,*40
1488268934.02,5261,8.19,72192.5,3.21,-31.61,-30.05,0,*4E
1488268935.24,5262,8.19,72186.5,3.21,-32.35,-30.89,0,*4B
1488268936.46,5263,8.19,72216.5,3.21,-32.35,-30.89,0,*4A
1488268937.7,5264,8.19,72214.8,3.21,-32.19,-30.51,0,*46
1488268938.97,5265,8.19,72204.0,3.19,-31.61,-30.05,0,*41
1488268940.2,5266,8.19,72210.3,3.19,-31.45,-29.83,0,*42
1488268941.42,5267,8.19,72208.8,3.17,-31.73,-30.23,0,*4A
1488268942.62,5268,8.19,72186.8,3.17,-32.01,-30.27,0,*47
1488268943.86,5269,8.19,72180.3,3.19,-31.39,-29.67,0,*4C
1488268945.12,5270,8.19,72170.5,3.19,-30.61,-29.01,0,*48
1488268946.34,5271,8.19,72122.8,3.19,-31.29,-29.83,0,*4E
1488268947.56,5272,8.19,72182.8,3.19,-31.79,-30.33,0,*4B
1488268948.78,5273,8.19,72160.5,3.17,-31.61,-29.95,0,*49
1488268950.01,5274,8.19,72172.0,3.17,-32.69,-30.95,0,*4D
1488268951.25,5275,8.19,72114.3,3.17,-32.45,-31.11,0,*4F
1488268952.47,5276,8.19,72114.5,3.17,-32.97,-31.29,0,*48
1488268953.69,5277,8.19,72142.8,3.15,-32.57,-31.01,0,*4D
1488268954.93,5278,8.19,72090.5,3.15,-32.13,-30.51,0,*46
1488268956.2,5279,8.19,72116.5,3.15,-32.79,-31.23,0,*4F
1488268957.4,5280,8.19,72146.8,3.13,-32.39,-30.67,0,*4A
1488268958.63,5281,8.19,72136.8,3.13,-32.85,-31.17,0,*4A
1488268959.88,5282,8.19,72160.8,3.13,-32.45,-30.73,0,*46
1488268961.12,5283,8.19,72158.8,3.11,-32.85,-31.29,0,*47
1488268962.4,5284,8.19,72168.0,3.11,-32.45,-30.73,0,*42
1488268963.62,5285,8.19,72174.8,3.09,-32.19,-30.67,0,*46
1488268964.86,5286,8.19,72190.5,3.09,-32.45,-30.95,0,*41
1488268966.08,5287,8.19,72194.3,3.09,-32.51,-30.73,0,*4D
1488268967.3,5288,8.19,72196.8,3.09,-32.85,-31.29,0,*45
1488268968.55,5289,8.19,72202.5,3.07,-32.97,-31.29,0,*49
1488268969.8,5290,8.19,72200.0,3.05,-32.75,-31.11,0,*44
1488268971.03,5291,8.19,72224.5,3.05,-33.09,-31.33,0,*4F
1488268972.23,5292,8.19,72208.0,3.05,-32.39,-30.83,0,*44
1488268973.48,5293,8.19,72204.3,3.01,-32.19,-30.51,0,*4C
1488268974.73,5294,8.19,72192.5,3.01,-31.73,-30.01,0,*41
1488268975.95,5295,8.19,72202.5,3.01,-32.13,-30.55,0,*44
1488268977.2,5296,8.19,72208.0,3.01,-32.45,-30.73,0,*40
1488268978.42,5297,8.19,72196.3,3.01,-32.19,-30.67,0,*4D
1488268979.67,5298,8.19,72220.3,2.97,-32.35,-30.73,0,*47
1488268980.93,5299,8.19,72192.5,2.97,-32.69,-31.11,0,*4A
1488268982.2,5300,8.19,72210.3,2.97,-33.09,-31.39,0,*46
1488268983.44,5301,8.19,72224.3,2.93,-32.85,-31.33,0,*4C
1488268984.69,5302,8.19,72218.3,2.93,-32.23,-30.77,0,*42
1488268985.94,5303,8.19,72210.3,2.93,-32.51,-30.89,0,*47
1488268987.2,5304,8.19,72214.0,2.93,-32.57,-30.77,0,*47
1488268988.44,5305,8.19,72216.0,2.93,-32.51,-30.95,0,*4C
1488268989.69,5306,8.25,72252.0,2.93,-32.39,-30.89,0,*4C
1488268990.91,5307,8.19,72218.5,2.89,-32.35,-30.83,0,*40
1488268992.12,5308,8.25,72208.8,2.91,-32.01,-30.33,0,*4A
1488268993.34,5309,8.19,72206.8,2.91,-31.91,-30.45,0,*40
1488268994.59,5310,8.19,72230.3,2.89,-32.13,-30.51,0,*4D
1488268995.87,5311,8.25,72220.3,2.89,-31.91,-30.17,0,*47
1488268997.09,5312,8.19,72228.5,2.91,-31.85,-30.27,0,*4B
1488268998.31,5313,8.19,72242.5,2.91,-31.57,-29.79,0,*46
1488268999.52,5314,8.25,72194.5,2.91,-30.83,-29.13,0,*45
1488269000.77,5315,8.25,72216.8,2.89,-31.91,-30.23,0,*44
1488269001.99,5316,8.19,72196.8,2.91,-31.67,-30.01,0,*47
1488269003.25,5317,8.25,72210.3,2.89,-31.91,-30.33,0,*47
1488269004.47,5318,8.25,72188.0,2.91,-32.29,-30.67,0,*40
1488269005.75,5319,8.25,72188.8,2.89,-31.91,-30.17,0,*4F
1488269006.98,5320,8.19,72182.5,2.89,-32.35,-30.67,0,*4F
1488269008.23,5321,8.25,72206.5,2.89,-32.19,-30.33,0,*41
1488269009.5,5322,8.19,72186.8,2.89,-32.07,-30.39,0,*47
1488269010.73,5323,8.25,72204.3,2.87,-32.45,-30.83,0,*4F
1488269011.96,5324,8.25,72212.5,2.87,-31.95,-30.23,0,*4C
1488269013.18,5325,8.25,72208.8,2.87,-31.91,-30.33,0,*48
1488269014.44,5326,8.25,72214.5,2.85,-32.39,-30.73,0,*4C
1488269015.63,5327,8.25,72226.8,2.87,-32.35,-30.67,0,*46
1488269016.86,5328,8.25,72216.8,2.87,-32.35,-30.61,0,*4F
1488269018.1,5329,8.25,72212.0,2.87,-32.07,-30.39,0,*42
1488269019.3,5330,8.25,72222.0,2.87,-31.29,-29.61,0,*40
1488269020.52,5331,8.25,72216.3,2.85,-31.33,-29.57,0,*4D
1488269021.8,5332,8.25,72228.0,2.85,-31.61,-29.89,0,*4A
1488269023.03,5333,8.19,72220.8,2.85,-32.35,-30.67,0,*41
1488269024.28,5334,8.25,72182.3,2.85,-31.95,-30.27,0,*4B
1488269025.5,5335,8.25,72160.5,2.85,-31.79,-30.23,0,*4C
1488269026.72,5336,8.25,72170.3,2.85,-31.67,-29.95,0,*45
1488269027.97,5337,8.25,72188.8,2.87,-31.61,-30.05,0,*41
1488269029.22,5338,8.25,72172.0,2.85,-31.45,-29.73,0,*43
1488269030.46,5339,8.25,72192.5,2.85,-32.13,-30.55,0,*4E
1488269031.65,5340,8.25,72174.0,2.83,-31.67,-30.11,0,*46
1488269032.87,5341,8.25,72160.5,2.83,-31.85,-30.11,0,*4B
1488269034.12,5342,8.25,72178.0,2.83,-31.51,-29.89,0,*48
1488269035.35,5343,8.25,72192.8,2.83,-31.51,-29.83,0,*43
1488269036.57,5344,8.25,72192.0,2.83,-31.61,-29.95,0,*40
1488269037.79,5345,8.25,72208.8,2.83,-31.85,-30.27,0,*4A
1488269039.04,5346,8.25,72204.5,2.81,-31.01,-29.39,0,*40
1488269040.26,5347,8.25,72180.5,2.83,-31.85,-30.45,0,*4C
1488269041.52,5348,8.25,72230.5,2.81,-32.01,-30.51,0,*4B
1488269042.79,5349,8.25,72228.3,2.81,-30.95,-29.39,0,*43
1488269043.99,5350,8.25,72250.3,2.83,-31.17,-29.67,0,*49
1488269045.24,5351,8.25,72236.0,2.81,-31.57,-29.95,0,*43
1488269046.5,5352,8.25,72236.5,2.81,-31.91,-30.45,0,*4F
1488269047.77,5353,8.25,72238.0,2.81,-31.51,-30.01,0,*42
1488269049.06,5354,8.25,72244.5,2.81,-32.07,-30.77,0,*44
1488269050.29,5355,8.25,72268.5,2.79,-32.19,-30.67,0,*4C
1488269051.52,5356,8.25,72250.5,2.79,-31.67,-30.01,0,*45
1488269052.77,5357,8.25,72178.5,2.79,-31.11,-29.73,0,*48
1488269053.99,5358,8.25,72210.0,2.79,-31.91,-30.45,0,*42
1488269055.25,5359,8.25,72250.8,2.75,-32.07,-30.55,0,*42
1488269056.5,5360,8.25,72232.0,2.75,-31.95,-30.51,0,*44
1488269057.73,5361,8.25,72250.0,2.75,-31.57,-29.95,0,*4B
1488269058.98,5362,8.25,72230.3,2.75,-31.61,-30.01,0,*48
1488269060.23,5363,8.25,72222.0,2.75,-31.57,-30.05,0,*48
1488269061.46,5364,8.25,72232.8,2.75,-32.13,-30.73,0,*4D
1488269062.69,5365,8.25,72204.5,2.75,-31.73,-30.23,0,*4C
1488269063.92,5366,8.25,72196.8,2.75,-31.79,-30.39,0,*4E
1488269065.17,5367,8.25,72180.8,2.73,-31.85,-30.45,0,*41
1488269066.42,5368,8.25,72166.3,2.71,-31.95,-30.55,0,*4C
1488269067.65,5369,8.25,72170.5,2.73,-32.39,-31.05,0,*4E
1488269068.84,5370,8.25,72168.8,2.71,-32.35,-31.05,0,*48
1488269070.07,5371,8.25,72216.0,2.71,-32.01,-30.73,0,*4E
1488269071.33,5372,8.25,72218.0,2.67,-32.07,-30.67,0,*49
1488269072.57,5373,8.25,72186.8,2.69,-31.51,-30.11,0,*47
1488269073.82,5374,8.25,72208.5,2.67,-31.57,-30.11,0,*48
1488269075.06,5375,8.25,72208.0,2.67,-32.23,-30.95,0,*45
1488269076.33,5376,8.25,72236.8,2.69,-32.63,-31.51,0,*45
1488269077.59,5377,8.25,72250.0,2.69,-32.07,-30.83,0,*48
1488269078.84,5378,8.25,72264.5,2.67,-31.73,-30.45,0,*43
1488269080.12,5379,8.25,72238.5,2.67,-31.91,-30.61,0,*48
1488269081.36,5380,8.25,72234.8,2.67,-31.73,-30.45,0,*44
1488269082.61,5381,8.25,72246.0,2.65,-31.91,-30.51,0,*4E
1488269083.85,5382,8.25,72286.3,2.65,-31.39,-30.01,0,*4A
1488269085.05,5383,8.25,72248.5,2.65,-31.05,-29.67,0,*4C
1488269086.29,5384,8.25,72264.8,2.63,-30.95,-29.67,0,*45
1488269087.52,5385,8.25,72236.8,2.65,-30.89,-29.67,0,*4F
1488269088.79,5386,8.25,72236.5,2.67,-31.11,-29.73,0,*4B
1488269090.0,5387,8.25,72254.0,2.67,-31.29,-29.79,0,*4B
1488269091.26,5388,8.25,72248.8,2.69,-30.51,-29.13,0,*48
1488269092.52,5389,8.25,72228.3,2.67,-30.51,-29.29,0,*4E
1488269093.79,5390,8.25,72234.8,2.67,-31.39,-30.05,0,*4F
1488269095.03,5391,8.25,72228.8,2.67,-31.11,-29.79,0,*47
1488269096.25,5392,8.25,72230.0,2.67,-30.83,-29.45,0,*41
1488269097.5,5393,8.25,72210.8,2.67,-31.29,-29.89,0,*41
1488269098.75,5394,8.25,72242.0,2.67,-31.11,-29.61,0,*4B
1488269099.99,5395,8.25,72230.5,2.67,-31.17,-29.89,0,*4A
1488269101.27,5396,8.25,72222.8,2.69,-31.11,-29.89,0,*41
1488269102.55,5397,8.25,72236.5,2.67,-31.39,-30.17,0,*4B
1488269103.76,5398,8.25,72224.5,2.67,-31.33,-30.11,0,*48
1488269105.04,5399,8.25,72268.8,2.69,-31.11,-29.73,0,*4B
1488269106.29,5400,8.25,72276.5,2.69,-30.95,-29.57,0,*47
1488269107.54,5401,8.25,72292.8,2.69,-30.77,-29.45,0,*49
1488269108.75,5402,8.25,72300.5,2.69,-30.33,-29.07,0,*4C
1488269110.0,5403,8.25,72270.0,2.69,-31.39,-30.33,0,*49
1488269111.28,5404,8.25,72234.5,2.69,-31.57,-30.51,0,*42
1488269112.52,5405,8.25,72230.5,2.67,-30.95,-29.79,0,*40
1488269113.74,5406,8.25,72212.8,2.69,-31.29,-29.95,0,*49
1488269114.98,5407,8.25,72202.5,2.67,-30.95,-29.61,0,*4B
1488269116.23,5408,8.25,72226.5,2.67,-31.17,-29.89,0,*49
1488269117.49,5409,8.25,72236.5,2.67,-30.61,-29.29,0,*42
1488269118.73,5410,8.25,72250.0,2.67,-30.77,-29.45,0,*47
1488269119.97,5411,8.25,72240.0,2.67,-31.01,-29.73,0,*43
1488269121.22,5412,8.25,72230.8,2.69,-31.57,-30.45,0,*40
1488269122.44,5413,8.25,72228.8,2.67,-31.29,-29.95,0,*43
1488269123.68,5414,8.25,72222.3,2.67,-31.39,-30.11,0,*41
1488269124.95,5415,8.25,72206.5,2.67,-31.39,-30.17,0,*46
1488269126.2,5416,8.25,72206.0,2.67,-31.51,-30.33,0,*4D
1488269127.45,5417,8.25,72202.5,2.67,-31.57,-30.33,0,*4A
1488269128.66,5418,8.25,72232.8,2.67,-31.01,-29.79,0,*40
1488269129.89,5419,8.25,72250.5,2.67,-30.83,-29.57,0,*46
1488269131.13,5420,8.25,72234.3,2.67,-30.11,-28.91,0,*4C
1488269132.32,5421,8.25,72216.8,2.65,-31.01,-29.79,0,*48
1488269133.59,5422,8.25,72246.3,2.67,-31.11,-29.89,0,*47
1488269134.84,5423,8.25,72220.5,2.67,-31.17,-30.05,0,*4C
1488269136.08,5424,8.25,72250.5,2.67,-31.57,-30.45,0,*4B
1488269137.29,5425,8.25,72220.8,2.65,-31.79,-30.83,0,*4E
1488269138.51,5426,8.25,72242.5,2.65,-30.73,-29.67,0,*44
1488269139.79,5427,8.25,72228.3,2.63,-31.95,-30.89,0,*42
1488269141.04,5428,8.25,72208.0,2.65,-31.73,-30.55,0,*42
1488269142.29,5429,8.25,72236.3,2.63,-31.79,-30.73,0,*4B
1488269143.53,5430,8.25,72268.8,2.63,-32.29,-31.29,0,*4B
1488269144.79,5431,8.25,72208.3,2.63,-32.29,-31.11,0,*41
1488269146.06,5432,8.25,72238.5,2.63,-31.61,-30.55,0,*4C
1488269147.28,5433,8.25,72262.8,2.59,-31.45,-30.27,0,*47
1488269148.52,5434,8.25,72218.3,2.61,-30.77,-29.73,0,*42
1488269149.76,5435,8.25,72246.3,2.59,-31.29,-30.05,0,*4B
1488269150.95,5436,8.25,72284.3,2.61,-31.17,-29.95,0,*4F
1488269152.2,5437,8.25,72182.0,2.59,-31.51,-30.33,0,*43
1488269153.47,5438,8.25,72262.5,2.63,-31.23,-30.05,0,*45
1488269154.66,5439,8.25,72246.3,2.61,-31.29,-30.27,0,*4C
1488269155.88,5440,8.25,72230.3,2.59,-32.23,-31.29,0,*4F
1488269157.11,5441,8.25,72216.3,2.59,-31.67,-30.67,0,*46
1488269158.34,5442,8.25,72226.3,2.59,-31.45,-30.33,0,*44
1488269159.61,5443,8.25,72266.5,2.59,-31.57,-30.61,0,*41
1488269160.84,5444,8.25,72246.3,2.57,-31.57,-30.33,0,*4F
1488269162.07,5445,8.25,72252.3,2.57,-31.73,-30.67,0,*49
1488269163.26,5446,8.25,72262.3,2.57,-31.33,-30.23,0,*4E
1488269164.46,5447,8.25,72278.8,2.53,-30.67,-29.45,0,*43
1488269165.7,5448,8.25,72276.3,2.57,-30.95,-29.73,0,*40
1488269166.92,5449,8.25,72288.8,2.57,-30.77,-29.57,0,*4B
1488269168.11,5450,8.25,72294.3,2.57,-31.01,-29.79,0,*4F
1488269169.36,5451,8.25,72276.5,2.57,-31.11,-29.89,0,*40
1488269170.55,5452,8.25,72266.8,2.57,-30.83,-29.61,0,*4F
1488269171.75,5453,8.25,72270.3,2.57,-31.33,-30.27,0,*4E
1488269172.95,5454,8.25,72278.0,2.53,-30.83,-29.67,0,*4B
1488269174.14,5455,8.25,72220.5,2.57,-30.27,-29.07,0,*46
1488269175.39,5456,8.25,72308.0,2.57,-31.11,-29.89,0,*47
1488269176.6,5457,8.25,72260.5,2.57,-30.95,-29.79,0,*44
1488269177.79,5458,8.25,72232.8,2.57,-31.33,-30.23,0,*41
1488269179.04,5459,8.25,72234.0,2.53,-31.51,-30.17,0,*47
1488269180.27,5460,8.25,72230.5,2.57,-31.67,-30.61,0,*4D
1488269181.5,5461,8.25,72212.3,2.53,-32.07,-30.83,0,*41
1488269182.72,5462,8.25,72202.0,2.53,-31.57,-30.27,0,*4A
1488269183.91,5463,8.25,72200.5,2.53,-31.01,-29.79,0,*4B
1488269185.14,5464,8.25,72216.0,2.53,-30.39,-29.13,0,*4A
1488269186.36,5465,8.25,72216.0,2.57,-30.77,-29.61,0,*40
1488269187.58,5466,8.25,72204.3,2.57,-31.33,-30.17,0,*4B
1488269188.83,5467,8.25,72232.3,2.53,-31.61,-30.55,0,*4F
1488269190.11,5468,8.25,72210.5,2.51,-31.95,-30.77,0,*49
1488269191.4,5469,8.25,72202.3,2.51,-31.95,-30.77,0,*48
1488269192.68,5470,8.25,72184.0,2.51,-31.95,-30.89,0,*41
1488269193.87,5471,8.25,72192.5,2.49,-31.67,-30.45,0,*44
1488269195.1,5472,8.25,72186.0,2.51,-31.45,-30.45,0,*4E
1488269196.35,5473,8.25,72202.8,2.49,-31.61,-30.39,0,*4B
1488269197.57,5474,8.25,72198.5,2.49,-32.13,-31.11,0,*41
1488269198.82,5475,8.25,72180.8,2.47,-31.67,-30.77,0,*4F
1488269200.08,5476,8.25,72224.5,2.47,-31.85,-30.67,0,*41
1488269201.33,5477,8.25,72202.5,2.45,-31.91,-30.77,0,*46
1488269202.56,5478,8.25,72124.8,2.45,-32.01,-31.11,0,*42
1488269203.81,5479,8.25,72136.5,2.45,-32.97,-32.07,0,*48
1488269205.0,5480,8.25,72126.5,2.41,-33.55,-32.57,0,*40
1488269206.23,5481,8.25,72156.0,2.41,-33.49,-32.39,0,*44
1488269207.49,5482,8.25,72174.0,2.41,-32.45,-31.23,0,*42
1488269208.69,5483,8.25,72192.0,2.41,-32.13,-31.01,0,*40
1488269209.92,5484,8.19,72190.5,2.39,-31.45,-30.33,0,*48
1488269211.19,5485,8.25,72190.3,2.39,-31.61,-30.51,0,*4B
1488269212.44,5486,8.25,72198.3,2.39,-31.11,-29.83,0,*48
1488269213.69,5487,8.25,72236.5,2.39,-30.95,-29.67,0,*4E
1488269214.94,5488,8.25,72226.5,2.39,-31.29,-29.89,0,*47
1488269216.21,5489,8.25,72200.5,2.39,-30.89,-29.51,0,*48
1488269217.47,5490,8.25,72200.0,2.39,-30.51,-29.13,0,*43
1488269218.69,5491,8.25,72202.0,2.41,-30.73,-29.45,0,*4E
1488269219.89,5492,8.25,72220.5,2.41,-31.33,-29.95,0,*45
1488269221.09,5493,8.25,72210.8,2.41,-31.05,-29.79,0,*43
1488269222.34,5494,8.25,72198.5,2.43,-30.83,-29.51,0,*43
1488269223.59,5495,8.25,72180.0,2.43,-30.67,-29.39,0,*46
1488269224.85,5496,8.25,72168.3,2.43,-30.51,-29.13,0,*48
1488269226.11,5497,8.25,72186.0,2.43,-31.23,-29.95,0,*43
1488269227.34,5498,8.25,72200.8,2.41,-31.33,-30.01,0,*4A
1488269228.6,5499,8.25,72188.8,2.43,-30.55,-29.13,0,*43
1488269229.82,5500,8.25,72192.5,2.43,-31.17,-29.83,0,*4C
1488269231.07,5501,8.25,72200.5,2.43,-31.39,-30.11,0,*42
1488269232.32,5502,8.25,72184.8,2.41,-31.39,-30.01,0,*42
1488269233.58,5503,8.25,72182.0,2.43,-32.07,-30.83,0,*45
1488269234.79,5504,8.25,72174.5,2.41,-32.39,-31.17,0,*41
1488269236.01,5505,8.25,72182.8,2.41,-32.29,-31.01,0,*46
1488269237.23,5506,8.25,72172.0,2.41,-32.29,-31.17,0,*42
1488269238.49,5507,8.25,72192.3,2.39,-32.01,-30.89,0,*40
1488269239.77,5508,8.25,72212.5,2.39,-31.95,-30.61,0,*47
1488269241.0,5509,8.25,72198.5,2.37,-31.61,-30.27,0,*41
1488269242.25,5510,8.25,72168.3,2.39,-31.29,-29.89,0,*47
1488269243.48,5511,8.25,72230.0,2.37,-32.07,-30.83,0,*45
1488269244.74,5512,8.19,72204.8,2.37,-31.11,-29.73,0,*45
1488269245.94,5513,8.25,72204.8,2.37,-31.45,-30.11,0,*49
1488269247.19,5514,8.25,72198.3,2.37,-31.85,-30.61,0,*45
1488269248.41,5515,8.25,72200.3,2.37,-32.23,-30.95,0,*40
1488269249.61,5516,8.25,72222.5,2.37,-32.35,-31.01,0,*48
1488269250.86,5517,8.25,72216.8,2.35,-31.91,-30.61,0,*41
1488269252.08,5518,8.25,72220.5,2.35,-31.79,-30.39,0,*45
1488269253.34,5519,8.25,72212.3,2.33,-31.95,-30.67,0,*4B
1488269254.61,5520,8.25,72216.5,2.33,-32.75,-31.57,0,*4E
1488269255.88,5521,8.25,72208.3,2.29,-32.79,-31.57,0,*48
1488269257.13,5522,8.19,72202.8,2.27,-33.09,-31.91,0,*49
1488269258.37,5523,8.25,72210.3,2.27,-32.85,-31.57,0,*47
1488269259.57,5524,8.25,72210.0,2.27,-33.03,-31.79,0,*43
1488269260.83,5525,8.25,72200.5,2.25,-32.97,-31.57,0,*40
1488269262.11,5526,8.25,72228.0,2.25,-32.79,-31.51,0,*45
1488269263.3,5527,8.25,72248.5,2.23,-32.91,-31.67,0,*41
1488269264.55,5528,8.25,72250.5,2.23,-31.95,-30.61,0,*4E
1488269265.8,5529,8.25,72258.5,2.23,-31.85,-30.55,0,*49
1488269267.08,5530,8.25,72242.8,2.21,-31.85,-30.55,0,*43
1488269268.3,5531,8.19,72230.8,2.21,-31.67,-30.27,0,*4B
1488269269.55,5532,8.25,72256.0,2.21,-31.61,-30.27,0,*4E
1488269270.78,5533,8.25,72248.8,2.21,-31.79,-30.45,0,*42
1488269272.01,5534,8.25,72264.3,2.21,-31.45,-30.11,0,*4B
1488269273.23,5535,8.19,72270.0,2.19,-31.73,-30.27,0,*41
1488269274.48,5536,8.19,72266.8,2.21,-31.61,-30.23,0,*4E
1488269275.73,5537,8.19,72264.0,2.19,-31.91,-30.51,0,*4E
1488269276.95,5538,8.19,72242.0,2.21,-31.67,-30.27,0,*42
1488269278.2,5539,8.25,72262.0,2.21,-31.51,-30.23,0,*42
1488269279.42,5540,8.19,72206.3,2.21,-31.33,-30.11,0,*49
1488269280.69,5541,8.19,72246.0,2.21,-31.85,-30.55,0,*45
1488269281.92,5542,8.25,72250.8,2.19,-31.85,-30.33,0,*4D
1488269283.11,5543,8.25,72212.0,2.19,-31.67,-30.11,0,*40
1488269284.36,5544,8.19,72242.8,2.19,-31.51,-30.17,0,*44
1488269285.55,5545,8.25,72202.8,2.19,-31.67,-30.27,0,*43
1488269286.8,5546,8.25,72184.0,2.19,-31.57,-30.01,0,*47
1488269288.02,5547,8.25,72206.5,2.19,-31.57,-30.27,0,*42
1488269289.28,5548,8.19,72186.3,2.19,-31.91,-30.61,0,*45
1488269290.52,5549,8.25,72158.3,2.19,-31.91,-30.51,0,*47
1488269291.75,5550,8.19,72150.8,2.19,-31.23,-29.83,0,*41
1488269293.02,5551,8.19,72132.5,2.17,-31.91,-30.51,0,*40
1488269294.25,5552,8.25,72144.0,2.15,-32.07,-30.67,0,*48
1488269295.53,5553,8.19,72150.3,2.17,-31.91,-30.55,0,*46
1488269296.81,5554,8.25,72182.0,2.17,-31.61,-30.17,0,*48
1488269298.05,5555,8.25,72206.0,2.15,-31.61,-30.39,0,*47
1488269299.33,5556,8.25,72234.8,2.17,-31.95,-30.55,0,*47
1488269300.57,5557,8.19,72224.0,2.15,-31.91,-30.55,0,*40
1488269301.8,5558,8.19,72236.3,2.15,-31.23,-29.83,0,*45
1488269303.02,5559,8.19,72238.0,2.15,-31.11,-29.79,0,*40
1488269304.27,5560,8.19,72228.0,2.17,-31.29,-30.01,0,*44
1488269305.49,5561,8.19,72216.8,2.15,-31.23,-29.79,0,*4A
1488269306.69,5562,8.19,72186.3,2.15,-31.79,-30.33,0,*40
1488269307.94,5563,8.19,72168.0,2.15,-31.39,-29.89,0,*4C
1488269309.16,5564,8.19,72134.8,2.15,-31.45,-30.01,0,*48
1488269310.38,5565,8.25,72140.3,2.17,-31.29,-29.79,0,*46
1488269311.6,5566,8.19,72158.5,2.17,-31.05,-29.67,0,*44
1488269312.85,5567,8.19,72164.5,2.15,-30.89,-29.35,0,*45
1488269314.04,5568,8.19,72144.8,2.15,-31.79,-30.23,0,*4B
1488269315.29,5569,8.19,72124.3,2.15,-31.61,-30.05,0,*47
1488269316.53,5570,8.19,72126.8,2.15,-31.91,-30.51,0,*41
1488269317.81,5571,8.19,72118.8,2.17,-31.95,-30.55,0,*42
1488269319.05,5572,8.19,72158.5,2.15,-32.19,-30.95,0,*48
1488269320.3,5573,8.19,72178.0,2.15,-31.57,-30.17,0,*4A
1488269321.53,5574,8.19,72202.3,2.15,-31.23,-29.79,0,*4E